默认 日期 大小 文件数 浏览量 最新下载 xml
69.pack磁力链接相关资源由用户搜索指令自动获取,结果来源于网络,本站不存储任何资料,亦不承担任何责任,请于24小时内删除,搜索到44个磁力,用时6ms。
    {"Abbi.Fede.2020.COMMEDIA.iTALiAN.WEBDL.RLZ.mp4": 712030104, "Fast.Color.2018.FANTASCIENZA.iTALiAN.WEBDL.RLZ.mp4": 508766743, "Cattive.Acque.2020.DRAMMATICO.iTALiAN.WEBDL.RLZ.mp4": 316828147, "L.Avvertimento.2018.iTALiAN.BRRip.x264.MP4-CaMik.mp4": ...
创建时间: 2020-06-25 13:20:28 大小:4.67 GB 文件数量:10 热度:2 最近下载:2021-06-17 16:25:58
    {"1343 X-Force": {"001 X-Force 001 (2020) (Digital) (Zone-Empire).cbr": 59575215, "002 X-Force 002 (2020) (Digital) (Zone-Empire).cbr": 41455484, "003 X-Force 003 (2020) (Digital) (Zone-Empire).cbr": 38940016, "004 X-Force 004 (2020) (Digital) (Zone-Empire ...
创建时间: 2020-10-23 13:31:39 大小:1.81 GB 文件数量:44 热度:10 最近下载:2025-10-12 23:27:03
    ... Chantal. Open To You. (69).jpg": 1224730, "Femjoy. Chantal ... Charlotte. Do You Remember. (69).jpg": 884513, "Femjoy. Charlotte ... Chantel - More Than Anything. (69).jpg": 711450}, "Femjoy. Charlotte - ... - Someone Wake Me Up. (69).jpg": 893349, "Femjoy. Charlotte ...
创建时间: 2020-11-26 05:25:17 大小:334.34 MB 文件数量:370 热度:3 最近下载:2022-04-15 06:12:19
    ... , "The Great Rotisserie Chicken Cookboo (69) - Eric Akis.jpg": 450662, "B ...
创建时间: 2021-02-25 02:21:24 大小:894.47 MB 文件数量:40 热度:2 最近下载:2025-10-14 07:45:01
    {"Books": {"Android For Dummies.epub": 9777973, "AI Superpowers Kai Fu Lee.epub": 1913416, "Alpha Male By Jeremy James.epub": 160944, "AMNESIASCOPE Steve Erickson.epub": 258027, "All The Light We Cannot See.epub": 642930, "All About History Annual 2019.pdf ...
创建时间: 2021-03-14 16:16:58 大小:1.5 GB 文件数量:80 热度:6 最近下载:2025-10-09 05:20:03
    ... 3337375, "100 Beautiful girls wallpapers {Pack-69} (62).jpg": 2725756, "100 ... Beautiful girls wallpapers {Pack-69} (63).JPG": 2659960, "100 ... girls wallpapers {Pack-69} (69).jpg": 1850029, "100 Beautiful girls wallpapers {Pack-69} (70).jpg ...
创建时间: 2021-04-05 19:08:20 大小:91.43 MB 文件数量:102 热度:5 最近下载:2025-04-14 01:01:56
    {"Covers": {"Cheri Magazine 2011 12.jpg": 1313421, "Score Magazine 2006 06.jpg": 324148, "Hustler Magazine 2003 09.jpg": 333852, "Interviu Magazine N 1978.jpg": 321709, "Temptation Magazine 98 8.jpg": 7634132, "Peep Show Magazine 2002 07.jpg": 280602, " ...
创建时间: 2021-05-16 06:18:07 大小:3 GB 文件数量:80 热度:5 最近下载:2025-10-09 13:03:02
    {"Books": {"Rheokinetics.pdf": 14549813, "Super Food Ideas 2014 10.pdf": 49906215, "Auto Repair And Maintenance.pdf": 56928507, "Adam Roberts Roads Were Burning.pdf": 27705, "C The Art Of C Herbert Schildt 2004.pdf": 1294616, "Albert Einstein The World As ...
创建时间: 2021-05-17 06:50:44 大小:565.77 MB 文件数量:80 热度:3 最近下载:2025-10-16 00:02:27
    {"Books": {"Beef Veal.pdf": 245534331, "Robert Reed Nodaway.pdf": 47470, "Scott Sigler Ancestor.pdf": 3932626, "Elizabeth Bear Tideline.pdf": 23831, "Gene Wolfe Talk of Mandrakes.pdf": 16207, "STAR TREK SCE 49 Small World.pdf": 93378, "Harlan Ellison ...
创建时间: 2021-05-28 19:51:38 大小:865.59 MB 文件数量:80 热度:4 最近下载:2025-10-11 08:41:03
    ... Beautiful Ultra HD 4K Wallpapers Pack-69 (11).jpg": 1139336, ... Beautiful Ultra HD 4K Wallpapers Pack-69 (13).jpg": 1038040, ... Beautiful Ultra HD 4K Wallpapers Pack-69 (16).jpg": 1019848, ... Beautiful Ultra HD 4K Wallpapers Pack-69 (69).jpg": 942035, "100 ...
创建时间: 2021-06-04 13:43:40 大小:95.59 MB 文件数量:100 热度:7 最近下载:2025-04-13 09:40:02
    ... Beautiful Ultra HD 4K Wallpapers Pack-69 (11).jpg": 1139336, ... Beautiful Ultra HD 4K Wallpapers Pack-69 (13).jpg": 1038040, ... Beautiful Ultra HD 4K Wallpapers Pack-69 (16).jpg": 1019848, ... Beautiful Ultra HD 4K Wallpapers Pack-69 (69).jpg": 942035, "100 ...
创建时间: 2021-06-29 12:58:27 大小:95.59 MB 文件数量:100 热度:3 最近下载:2025-01-02 12:58:04
    ... Beautiful Ultra HD 4K Wallpapers Pack-69 (11).jpg": 1139336, ... Beautiful Ultra HD 4K Wallpapers Pack-69 (13).jpg": 1038040, ... Beautiful Ultra HD 4K Wallpapers Pack-69 (16).jpg": 1019848, ... Beautiful Ultra HD 4K Wallpapers Pack-69 (69).jpg": 942035, "100 ...
创建时间: 2021-07-08 23:54:45 大小:95.59 MB 文件数量:100 热度:4 最近下载:2025-01-07 07:06:03
    {"Covers": {"Summer Food By Tjaart Walraven.jpg": 65745, "On Toast - More than 70 deliciously inventive recipes.jpg": 103606, "Shisanyama - Braai (Barbeque) Recipes from South Africa.jpg": 92721, "Southern Grit - 100+ Down-Home Recipes for the Modern Cook. ...
创建时间: 2021-09-23 08:14:18 大小:1.01 GB 文件数量:40 热度:5 最近下载:2025-10-18 06:35:03
    {"EP01.rar": 1679993496, "EP02.rar": 1648050949, "EP03.rar": 2508590368, "EP04.rar": 1981134831, "EP05.rar": 1442574244, "EP06.rar": 2851735039, "EP07.rar": 1420318888, "EP08.rar": 1597765145, "EP09.rar": 1466787956, "EP10.rar": 1582783732, "EP11.rar": ...
创建时间: 2021-10-19 06:12:15 大小:28.76 GB 文件数量:48 热度:6 最近下载:2025-03-26 18:51:04
    ... her out.mp4.jpg": 431000}, "69 video.rar": 1913392470, "Read me ... !.txt": 9478, "69 lesbians compilation.mp4": 284318368}
创建时间: 2021-12-01 08:11:55 大小:2.06 GB 文件数量:34 热度:10 最近下载:2025-02-07 06:57:01
    {"_Silent Install.cmd": 1054, "_Unpack Portable.cmd": 1065, "uTorrent Pack 1.2.3.69.exe": 18464402}
创建时间: 2023-05-14 15:48:39 大小:17.61 MB 文件数量:3 热度:2 最近下载:2025-01-27 10:58:02
    {"_Silent Install.cmd": 1054, "_Unpack Portable.cmd": 1065, "uTorrent Pack 1.2.3.69.exe": 18464402}
创建时间: 2023-05-18 23:23:07 大小:17.61 MB 文件数量:3 热度:2 最近下载:2025-01-14 02:21:05
    {"uTorrent Pack 1.2.3.69.exe": 18546688}
创建时间: 2023-05-25 22:04:36 大小:17.69 MB 文件数量:1 热度:2 最近下载:2025-01-13 01:15:01
    {"_Silent Install.cmd": 1054, "_Unpack Portable.cmd": 1065, "uTorrent Pack 1.2.3.69.exe": 18525273}
创建时间: 2023-06-06 05:10:11 大小:17.67 MB 文件数量:3 热度:12 最近下载:2025-04-20 23:30:01
    {"_Silent Install.cmd": 1054, "_Unpack Portable.cmd": 1065, "uTorrent Pack 1.2.3.69.exe": 18525273}
创建时间: 2023-06-09 18:13:17 大小:17.67 MB 文件数量:3 热度:15 最近下载:2025-03-30 17:12:01